Location: Venise Bay
(45.0825°N, 73.1481°W)
Time: 18:26:54
(UTC-05:00)

ISS - Visible Passes

Search period start: 30 November 2021 00:00
Search period end: 10 December 2021 00:00
Orbit: 417 x 423 km, 51.6° (Epoch: 30 November)

Date Brightness Start Highest point End Pass type
(mag) Time Alt. Az. Time Alt. Az. Time Alt. Az.
30 Nov -2.4 18:09:10 10° NW 18:11:35 29° NNW 18:11:35 29° NNW visible
01 Dec -2.5 17:21:56 10° NW 17:24:57 28° N 17:26:22 21° NE visible
01 Dec -0.8 18:58:44 10° WNW 18:59:22 15° WNW 18:59:22 15° WNW visible
02 Dec -3.0 18:11:34 10° NW 18:14:13 43° NNW 18:14:13 43° NNW visible
03 Dec -3.2 17:24:23 10° NW 17:27:38 40° NNE 17:29:09 25° ENE visible
03 Dec -0.8 19:01:16 10° WNW 19:02:09 17° WNW 19:02:09 17° WNW visible
04 Dec -2.8 16:37:11 10° NW 16:40:18 33° NNE 16:43:25 10° E visible
04 Dec -3.5 18:13:57 10° WNW 18:17:14 67° SW 18:17:14 67° SW visible
05 Dec -3.8 17:26:43 10° WNW 17:30:07 79° NNE 17:32:30 18° ESE visible
05 Dec -0.6 19:04:20 10° W 19:05:31 15° WSW 19:05:31 15° WSW visible
06 Dec -3.6 16:39:30 10° NW 16:42:51 55° NNE 16:46:11 10° ESE visible
06 Dec -1.7 18:16:37 10° W 18:19:31 26° SW 18:21:02 19° S visible
07 Dec -2.5 17:29:09 10° WNW 17:32:23 41° SW 17:35:35 10° SE visible
08 Dec -3.3 16:41:48 10° WNW 16:45:11 67° SSW 16:48:33 10° SE visible
09 Dec -0.6 17:32:10 10° W 17:34:23 16° SW 17:36:35 10° S visible
